Terminal Aerodrome Forecast
Issued by NWS Denver/Boulder, CO

Home | Current Version | Previous Version | Text Only | Print | Product List | Glossary On
Versions: 1 2 3 4 5 6 7 8 9 10 11 12 13 14 15 16 17 18 19 20 21 22 23 24 25 26 27 28 29 30 31 32 33 34 35 36 37 38 39 40 41 42 43 44 45 46 47 48 49 50
000
FTUS45 KBOU 212359 AAA
TAFDEN
TAF AMD
KDEN 212359Z 2200/2306 03006KT P6SM VCTS SCT080CB SCT120 BKN200
      TEMPO 2200/2202 14014G20KT SCT060CB BKN120
     FM220300 18010KT P6SM VCSH SCT080 BKN120
     FM220600 21008KT P6SM SCT120 SCT200
     FM221400 VRB05KT P6SM SCT080 BKN120
     FM222100 15010KT P6SM VCTS SCT070CB BKN100
      TEMPO 2221/2301 VRB20G35KT -TSRA BKN060CB
     FM230200 18010KT P6SM SCT050 BKN100=

USA.gov is the U.S. government's official web portal to all federal, state and local government web resources and services.